This demonstration page uses our WeatherBlox Daily Observations layout. Learn more.

Left ArrowRight Arrow

41.12389, -100.76542

Hourly Observations for September 11, 2020

Temp ( °F °C ) Dew Point ( °F °C ) Humidity (%) Winds ( mph kmh ) Pressure ( in mb ) Visibility ( mi km ) Precip ( " mm )
12:53 am 00:53 Cloudy 53 11.7 46 7.8 77 77 SE 5 7 30.28 1025 10 16 0.00 0.00
1:53 am 01:53 Cloudy 52 11.1 46 7.8 80 80 SE 5 7 30.26 1025 10 16 0.00 0.00
2:11 am 02:11 Cloudy 52 11.1 47 8.3 83 83 S 6 9 30.27 1025 10 16 0.00 0.00
2:53 am 02:53 Cloudy with Light Rain 51 10.6 47 8.3 86 86 ESE 6 9 30.25 1024 6 10 0.03 0.76
3:00 am 03:00 Cloudy with Rain 51 10.6 47 8.3 86 86 SE 3 6 30.25 1024 6 10 0.02 0.51
3:11 am 03:11 Cloudy with Light Rain 51 10.6 47 8.3 86 86 Calm 30.25 1024 7 11 0.06 1.52
3:53 am 03:53 Cloudy with Light Rain 51 10.6 48 8.9 89 89 ESE 5 7 30.23 1024 10 16 0.08 2.03
4:00 am 04:00 Cloudy 51 10.6 48 8.9 89 89 SE 5 7 30.24 1024 10 16 0.00 0.00
4:16 am 04:16 Cloudy 51 10.6 48 8.9 89 89 Calm 30.23 1024 10 16 0.01 0.25
4:53 am 04:53 Cloudy 51 10.6 48 8.9 89 89 ESE 5 7 30.21 1023 10 16 0.01 0.25
5:07 am 05:07 Cloudy 51 10.6 48 8.9 89 89 SE 3 6 30.22 1023 10 16 0.00 0.00
5:53 am 05:53 Cloudy 51 10.6 48 8.9 89 89 SSE 3 6 30.20 1023 10 16 0.00 0.00
6:53 am 06:53 Cloudy 51 10.6 48 8.9 89 89 SE 5 7 30.19 1022 10 16 0.00 0.00
7:53 am 07:53 Cloudy with Mist and Fog 51 10.6 48 8.9 89 89 SE 3 6 30.18 1022 6 10 0.00 0.00
8:37 am 08:37 Cloudy with Mist and Fog 51 10.6 48 8.9 89 89 S 6 9 30.19 1022 6 10 0.00 0.00
8:53 am 08:53 Cloudy 51 10.6 49 9.4 92 92 S 6 9 30.19 1022 9 14 0.00 0.00
9:45 am 09:45 Cloudy 52 11.1 49 9.4 89 89 SSW 3 6 30.16 1021 10 16 0.00 0.00
9:53 am 09:53 Cloudy 52 11.1 49 9.4 89 89 SSW 5 7 30.17 1022 10 16 0.00 0.00
10:45 am 10:45 Cloudy 54 12.2 49 9.4 83 83 S 5 7 30.14 1021 10 16 0.00 0.00
10:53 am 10:53 Cloudy 54 12.2 49 9.4 83 83 SSE 3 6 30.15 1021 10 16 0.00 0.00
11:00 am 11:00 Cloudy 54 12.2 49 9.4 83 83 S 7 11 30.13 1020 10 16 0.00 0.00
11:53 am 11:53 Cloudy 56 13.3 49 9.4 77 77 SSE 7 11 30.12 1020 10 16 0.00 0.00
12:01 pm 12:01 Cloudy 56 13.3 49 9.4 77 77 SSE 9 15 30.10 1019 10 16 0.00 0.00
12:53 pm 12:53 Cloudy 57 13.9 48 8.9 72 72 S 9 15 30.11 1020 10 16 0.00 0.00
1:06 pm 13:06 Cloudy 57 13.9 49 9.4 74 74 SSE 8 13 30.07 1018 10 16 0.00 0.00
1:53 pm 13:53 Cloudy 58 14.4 48 8.9 70 70 S 7 11 30.08 1019 10 16 0.00 0.00
2:53 pm 14:53 Cloudy 60 15.6 48 8.9 65 65 S 8 13 30.05 1018 10 16 0.00 0.00
3:53 pm 15:53 Cloudy 64 17.8 48 8.9 56 56 S 9 15 30.01 1016 10 16 0.00 0.00
4:53 pm 16:53 Partly Cloudy 66 18.9 48 8.9 52 52 SW 7 11 29.97 1015 10 16 0.00 0.00
5:53 pm 17:53 Mostly Cloudy 66 18.9 48 8.9 52 52 SSE 7 11 29.95 1014 10 16 0.00 0.00
6:53 pm 18:53 Cloudy with Light Rain 64 17.8 51 10.6 63 63 Calm 29.97 1015 10 16 0.00 0.00
7:53 pm 19:53 Cloudy with Light Rain 58 14.4 53 11.7 84 84 ESE 5 7 29.98 1015 10 16 0.04 1.02
8:53 pm 20:53 Cloudy 56 13.3 53 11.7 90 90 ESE 7 11 29.96 1015 10 16 0.00 0.00
9:53 pm 21:53 Cloudy 56 13.3 53 11.7 90 90 SE 10 17 29.97 1015 10 16 0.00 0.00
10:53 pm 22:53 Cloudy 57 13.9 53 11.7 87 87 S 8 13 29.96 1014 10 16 0.00 0.00
11:53 pm 23:53 Cloudy 57 13.9 52 11.1 83 83 S 8 13 29.95 1014 10 16 0.00 0.00

Powered by AerisWeather